User: anonymous   Login
Location: Brno
(49.2000°N, 16.6330°E)
Time: 17:18:58
(UTC+02:00)
Language:

NOSS 3-4 (A) - Orbit

View from above orbital plane
View from above orbital plane
View from above satellite
View from above satellite

Ground track
Ground track

The orbit data is extracted from the following two-line orbital elements,

1 31701U 07027A   18109.86440682 0.00000000  00000-0  00000-0 0    08
2 31701  63.4051  21.4594 0218000  21.7072 338.2928 13.40748849    01
Epoch (UTC): 19 April 2018 20:44:44
Eccentricity: 0.0218000
inclination: 63.4051°
perigee height: 943 km
apogee height: 1269 km
right ascension of ascending node: 21.4594°
argument of perigee: 21.7072°
revolutions per day: 13.40748849
mean anomaly at epoch: 338.2928°
orbit number at epoch: 0

The dashed part of the orbit path shows where the satellite is in the earth's shadow,  

DLR